CAPE
318 198 4 0 76 0 18 5 10 2 35 209 95 23 11 59 13 6 12 0 0 0 0 0 0 0 0 0 0 0 0 0 11 26 46 45 39 9 4 0 3 5
535 375 426 51 18 141 36 0 0 7 12 11 154 76 25 13 21 20 14 2 0 0 0 0 0 0 0 0 0 0 0 0 0 0 0 0 1 0 2 8 15 37
622 477 444 505 154 56 3 84 0 0 148 88 29 12 34 14 11 33 23 22 8 5 0 0 0 0 0 0 0 0 0 0 0 0 0 0 0 0 0 0 0 0
662 603 269 116 330 130 166 88 244 0 0 1 47 226 7 8 27 56 62 18 19 16 37 2 0 0 0 0 0 0 0 0 0 0 0 0 0 0 0 0 0 0
811 695 570 481 414 121 396 98 0 2 0 0 10 34 183 62 22 10 22 22 20 21 18 33 20 4 1 0 0 0 0 0 0 0 0 0 0 0 0 0 0 0
1010 839 673 466 399 605 360 222 6 20 0 0 0 0 15 6 13 0 10 13 18 14 10 11 12 11 10 5 3 0 0 0 0 0 0 0 0 0 0 0 0 0
858 1025 865 617 600 470 347 151 79 49 68 26 1 0 0 0 0 0 0 6 5 15 10 11 12 30 16 13 15 11 0 0 0 0 0 0 0 0 0 0 0 0
1104 1226 1012 502 799 770 755 522 538 468 478 510 131 0 0 0 0 0 0 0 4 4 12 14 26 19 34 24 20 18 21 3 0 0 0 0 0 0 0 0 0 0
730 911 744 766 1003 1078 986 874 1127 645 266 227 322 149 46 0 0 0 1 0 0 4 7 12 20 20 32 48 36 20 21 21 16 10 9 9 5 0 0 0 0 0
856 883 1097 992 734 1157 1158 1422 1473 954 691 633 213 200 0 25 8 2 4 7 2 3 4 10 12 21 33 41 43 38 27 20 29 31 21 16 9 3 0 0 0 0
902 1200 1229 1252 1228 1295 1279 1451 1334 1098 837 461 404 233 209 99 11 0 1 4 5 1 0 0 3 10 11 28 45 46 44 40 36 26 24 22 12 4 3 0 0 1
1274 1084 1261 1177 1137 1136 1131 1083 1076 996 832 764 415 358 369 296 80 4 0 1 0 0 0 0 2 6 11 15 27 50 65 58 54 48 42 32 27 26 1 0 0 4
1439 1554 1347 1264 1237 1122 1107 938 787 725 627 347 363 442 537 436 109 144 16 12 10 1 0 1 0 2 22 35 36 44 58 67 68 54 51 56 47 41 48 26 9 5
1271 1324 1262 1446 1382 1234 1103 1082 948 858 751 594 429 418 292 185 233 216 288 13 0 3 2 2 20 30 35 27 58 62 47 43 41 73 84 49 51 61 56 54 50 40
1668 1554 1317 1235 1198 1154 1141 1021 1037 902 786 473 353 430 369 244 261 367 99 28 72 31 63 101 446 93 17 1 0 0 0 3 27 46 55 59 56 47 43 35 14 23
1021 1300 1321 1190 1089 1092 922 864 830 716 635 500 606 493 401 408 511 646 168 231 340 215 88 54 107 142 8 12 0 7 3 0 4 23 26 29 34 30 27 17 29 15
946 1089 1120 966 732 848 706 940 821 797 645 608 592 793 733 670 645 446 197 724 168 144 89 1 10 2 0 0 1 3 8 16 21 2 42 32 21 26 21 20 20 16
942 1015 958 744 547 599 667 762 722 845 624 703 821 634 723 765 594 534 553 469 248 368 470 554 284 28 3 7 0 1 1 12 18 19 26 56 57 34 29 24 20 30
690 746 876 756 736 904 870 796 840 864 777 439 531 716 722 411 718 371 270 419 574 286 328 321 542 20 4 0 4 7 4 2 8 16 14 25 55 90 71 52 37 34
753 759 746 830 757 706 716 678 760 652 808 844 578 523 411 358 520 394 329 347 394 434 273 272 402 93 0 0 0 5 3 10 0 1 2 13 26 52 81 77 71 64
558 714 645 600 590 601 706 590 670 880 642 659 657 515 419 632 684 570 533 484 470 327 352 171 149 35 4 0 0 0 0 0 0 0 1 2 9 24 64 79 81 98
237 337 456 526 531 542 737 704 740 648 558 663 604 558 477 492 498 436 336 184 207 212 161 291 0 0 0 0 0 0 0 0 16 19 2 0 1 12 56 39 10 20
45 87 238 320 304 376 343 462 528 432 437 341 364 316 296 247 9 1 7 4 2 2 8 2 0 23 0 0 0 0 0 0 1 2 3 4 3 1 6 3 12 9
14 2 60 95 128 146 222 305 340 351 258 214 202 139 189 177 142 2 4 88 157 1 1 4 1 0 0 0 0 0 0 0 1 0 0 24 7 10 4 1 14 6
2 2 6 15 6 40 94 86 125 186 327 270 152 19 7 116 8 7 5 128 196 0 0 0 1 0 0 0 0 0 0 0 5 2 3 5 6 8 18 8 24 5
0 0 0 0 1 10 34 37 80 116 65 10 3 3 7 4 1 0 0 0 0 0 0 0 0 0 0 0 0 0 0 0 0 2 2 2 3 7 11 4 2 2
Wind_Speed
13 13 nan nan nan nan nan nan nan nan nan 22 nan nan nan nan nan nan nan nan nan nan nan nan nan nan nan nan nan nan nan nan nan nan nan nan nan nan nan nan nan nan
10 12 12 nan nan 13 nan nan nan nan nan nan 21 nan nan nan nan nan nan nan nan nan nan nan nan nan nan nan nan nan nan nan nan nan nan nan nan nan nan nan nan nan
8 10 12 12 15 nan nan nan nan nan 18 nan nan nan nan nan nan nan nan nan nan nan nan nan nan nan nan nan nan nan nan nan nan nan nan nan nan nan nan nan nan nan
8 8 11 11 14 15 15 nan 20 nan nan nan nan 22 nan nan nan nan nan nan nan nan nan nan nan nan nan nan nan nan nan nan nan nan nan nan nan nan nan nan nan nan
9 10 9 9 14 16 15 nan nan nan nan nan nan nan 21 nan nan nan nan nan nan nan nan nan nan nan nan nan nan nan nan nan nan nan nan nan nan nan nan nan nan nan
9 11 12 10 10 13 16 15 nan nan nan nan nan nan nan nan nan nan nan nan nan nan nan nan nan nan nan nan nan nan nan nan nan nan nan nan nan nan nan nan nan nan
9 12 13 13 11 13 14 16 nan nan nan nan nan nan nan nan nan nan nan nan nan nan nan nan nan nan nan nan nan nan nan nan nan nan nan nan nan nan nan nan nan nan
9 14 14 14 14 14 16 17 17 19 19 19 21 nan nan nan nan nan nan nan nan nan nan nan nan nan nan nan nan nan nan nan nan nan nan nan nan nan nan nan nan nan
9 10 12 14 14 13 14 14 16 19 19 17 17 19 nan nan nan nan nan nan nan nan nan nan nan nan nan nan nan nan nan nan nan nan nan nan nan nan nan nan nan nan
10 10 13 13 12 15 15 16 17 18 19 17 16 17 nan nan nan nan nan nan nan nan nan nan nan nan nan nan nan nan nan nan nan nan nan nan nan nan nan nan nan nan
16 15 17 18 16 14 14 16 16 17 18 16 15 15 15 nan nan nan nan nan nan nan nan nan nan nan nan nan nan nan nan nan nan nan nan nan nan nan nan nan nan nan
20 20 18 17 17 17 16 14 14 14 15 16 15 14 15 18 nan nan nan nan nan nan nan nan nan nan nan nan nan nan nan nan nan nan nan nan nan nan nan nan nan nan
16 17 17 16 17 18 19 18 15 14 13 13 15 16 16 17 16 16 nan nan nan nan nan nan nan nan nan nan nan nan nan nan nan nan nan nan nan nan nan nan nan nan
13 12 14 17 17 17 18 17 16 15 14 14 14 13 14 15 17 17 18 nan nan nan nan nan nan nan nan nan nan nan nan nan nan nan nan nan nan nan nan nan nan nan
13 14 15 16 17 17 17 16 15 14 14 15 15 15 16 13 13 18 nan nan nan nan nan 17 24 nan nan nan nan nan nan nan nan nan nan nan nan nan nan nan nan nan
14 15 17 17 18 19 19 16 16 14 15 15 15 15 13 15 16 22 22 21 20 24 nan nan 20 25 nan nan nan nan nan nan nan nan nan nan nan nan nan nan nan nan
16 16 18 20 20 20 21 21 21 22 20 17 16 18 19 17 20 17 20 27 24 23 nan nan nan nan nan nan nan nan nan nan nan nan nan nan nan nan nan nan nan nan
18 18 21 23 21 21 21 19 18 17 20 21 23 23 21 20 21 18 20 21 22 23 25 26 25 nan nan nan nan nan nan nan nan nan nan nan nan nan nan nan nan nan
19 20 21 23 23 22 22 22 21 23 25 24 24 26 26 23 24 22 20 21 24 27 23 23 25 nan nan nan nan nan nan nan nan nan nan nan nan nan nan nan nan nan
21 21 22 23 24 25 24 23 23 22 25 26 25 27 28 26 23 21 20 20 22 25 26 24 25 nan nan nan nan nan nan nan nan nan nan nan nan nan nan nan nan nan
22 23 23 25 26 27 27 27 26 25 26 26 27 27 25 24 24 22 21 21 21 23 24 24 26 nan nan nan nan nan nan nan nan nan nan nan nan nan nan nan nan nan
24 25 25 26 27 27 28 28 27 28 27 25 25 26 26 26 24 23 23 24 25 25 26 28 nan nan nan nan nan nan nan nan nan nan nan nan nan nan nan nan nan nan
nan nan 27 27 28 28 29 28 27 27 27 25 25 26 27 28 nan nan nan nan nan nan nan nan nan nan nan nan nan nan nan nan nan nan nan nan nan nan nan nan nan nan
nan nan nan nan 27 27 27 28 28 28 28 28 28 27 27 26 28 nan nan nan 28 nan nan nan nan nan nan nan nan nan nan nan nan nan nan nan nan nan nan nan nan nan
nan nan nan nan nan nan nan nan 26 27 29 29 29 nan nan 27 nan nan nan 27 28 nan nan nan nan nan nan nan nan nan nan nan nan nan nan nan nan nan nan nan nan nan
nan nan nan nan nan nan nan nan nan 25 nan nan nan nan nan nan nan nan nan nan nan nan nan nan nan nan nan nan nan nan nan nan nan nan nan nan nan nan nan nan nan nan
Wind_Direction
285 289 nan nan nan nan nan nan nan nan nan 301 nan nan nan nan nan nan nan nan nan nan nan nan nan nan nan nan nan nan nan nan nan nan nan nan nan nan nan nan nan nan
287 294 286 nan nan 292 nan nan nan nan nan nan 298 nan nan nan nan nan nan nan nan nan nan nan nan nan nan nan nan nan nan nan nan nan nan nan nan nan nan nan nan nan
297 292 288 288 295 nan nan nan nan nan 278 nan nan nan nan nan nan nan nan nan nan nan nan nan nan nan nan nan nan nan nan nan nan nan nan nan nan nan nan nan nan nan
312 296 299 305 297 302 297 nan 294 nan nan nan nan 295 nan nan nan nan nan nan nan nan nan nan nan nan nan nan nan nan nan nan nan nan nan nan nan nan nan nan nan nan
309 303 290 292 293 297 289 nan nan nan nan nan nan nan 296 nan nan nan nan nan nan nan nan nan nan nan nan nan nan nan nan nan nan nan nan nan nan nan nan nan nan nan
312 312 313 315 300 298 309 312 nan nan nan nan nan nan nan nan nan nan nan nan nan nan nan nan nan nan nan nan nan nan nan nan nan nan nan nan nan nan nan nan nan nan
322 319 322 318 321 321 320 317 nan nan nan nan nan nan nan nan nan nan nan nan nan nan nan nan nan nan nan nan nan nan nan nan nan nan nan nan nan nan nan nan nan nan
322 320 327 323 325 328 320 318 313 310 308 305 304 nan nan nan nan nan nan nan nan nan nan nan nan nan nan nan nan nan nan nan nan nan nan nan nan nan nan nan nan nan
316 321 313 328 330 317 308 306 300 302 306 307 303 298 nan nan nan nan nan nan nan nan nan nan nan nan nan nan nan nan nan nan nan nan nan nan nan nan nan nan nan nan
308 312 302 289 306 313 316 312 303 299 296 298 303 304 nan nan nan nan nan nan nan nan nan nan nan nan nan nan nan nan nan nan nan nan nan nan nan nan nan nan nan nan
320 314 312 318 322 315 312 309 307 304 305 311 306 308 308 nan nan nan nan nan nan nan nan nan nan nan nan nan nan nan nan nan nan nan nan nan nan nan nan nan nan nan
320 332 330 326 326 326 323 317 311 310 311 313 320 318 310 301 nan nan nan nan nan nan nan nan nan nan nan nan nan nan nan nan nan nan nan nan nan nan nan nan nan nan
329 330 328 327 326 324 320 321 321 321 323 327 323 323 317 309 308 314 nan nan nan nan nan nan nan nan nan nan nan nan nan nan nan nan nan nan nan nan nan nan nan nan
331 326 324 327 325 321 319 317 318 317 319 314 317 321 325 327 326 323 305 nan nan nan nan nan nan nan nan nan nan nan nan nan nan nan nan nan nan nan nan nan nan nan
324 325 321 317 313 308 303 305 308 316 317 317 315 317 317 320 320 311 nan nan nan nan nan 293 291 nan nan nan nan nan nan nan nan nan nan nan nan nan nan nan nan nan
318 318 316 313 305 303 305 307 311 323 322 319 317 306 305 310 309 299 308 320 320 302 nan nan 296 298 nan nan nan nan nan nan nan nan nan nan nan nan nan nan nan nan
307 303 304 294 294 303 314 325 331 328 317 309 304 301 299 297 296 303 304 305 312 311 nan nan nan nan nan nan nan nan nan nan nan nan nan nan nan nan nan nan nan nan
291 289 291 297 301 301 302 305 301 303 300 299 299 292 291 291 288 294 296 300 300 304 304 305 308 nan nan nan nan nan nan nan nan nan nan nan nan nan nan nan nan nan
297 296 298 299 303 308 309 307 307 299 297 297 296 297 295 292 294 297 296 293 300 298 299 301 305 nan nan nan nan nan nan nan nan nan nan nan nan nan nan nan nan nan
293 296 297 299 301 300 300 296 295 300 299 300 301 301 300 303 310 310 306 302 297 302 305 302 296 nan nan nan nan nan nan nan nan nan nan nan nan nan nan nan nan nan
292 292 292 295 296 297 302 300 300 298 296 297 299 299 303 304 301 301 303 301 299 300 299 297 292 nan nan nan nan nan nan nan nan nan nan nan nan nan nan nan nan nan
293 293 291 290 290 293 293 293 293 292 294 293 294 293 294 294 292 290 286 284 284 287 291 291 nan nan nan nan nan nan nan nan nan nan nan nan nan nan nan nan nan nan
nan nan 292 290 289 289 289 290 290 289 291 293 290 289 289 288 nan nan nan nan nan nan nan nan nan nan nan nan nan nan nan nan nan nan nan nan nan nan nan nan nan nan
nan nan nan nan 291 289 290 292 292 293 291 292 291 290 288 289 291 nan nan nan 286 nan nan nan nan nan nan nan nan nan nan nan nan nan nan nan nan nan nan nan nan nan
nan nan nan nan nan nan nan nan 293 297 300 298 298 nan nan 300 nan nan nan 295 293 nan nan nan nan nan nan nan nan nan nan nan nan nan nan nan nan nan nan nan nan nan
nan nan nan nan nan nan nan nan nan 298 nan nan nan nan nan nan nan nan nan nan nan nan nan nan nan nan nan nan nan nan nan nan nan nan nan nan nan nan nan nan nan nan